Yatton Keynell, United Kingdom

7:59 AM BST on April 23, 2019 (GMT +0100)
Yatton Keynell

Weather History for 03740 - July, 2006

Change the Weather History Date:

Saturday, July 22, 2006

  Actual Average Record
Temperature  
Mean Temperature 70 °F -  
Max Temperature 77 °F 68 °F - ()
Min Temperature 63 °F 53 °F - ()
Cooling Degree Days 5    
Growing Degree Days 20 (Base 50)    
Moisture  
Dew Point 62 °F    
Average Humidity 81    
Maximum Humidity 94    
Minimum Humidity 64    
Precipitation  
Precipitation 0.87 in 0.08 in - ()
Sea Level Pressure  
Sea Level Pressure 30.02 in    
Wind  
Wind Speed 4 mph ()    
Max Wind Speed 10 mph    
Max Gust Speed -    
Visibility 5.3 miles    
Events Rain , Thunderstorm    
T = Trace of Precipitation, MM = Missing Value Source: Averaged Metar Reports

Daily Weather History Graph

Daily Weather History Graph

Search for Another Location

Airport or City:

Astronomy

Jul. 22, 2006 Rise Set
Actual Time 5:16 AM BST 9:10 PM BST
Civil Twilight 4:33 AM BST 9:53 PM BST
Nautical Twilight 3:33 AM BST 10:53 PM BST
Astronomical Twilight 1:36 AM BST 12:42 AM BST
Moon 1:43 AM BST (7/22) 8:06 PM BST (7/22)
Length of Visible Light 17h 19m
Length of Day
15h 54m
Waning Crescent, 8% of the Moon is Illuminated
Jul 22
Waning Crescent
Jul 25
New
Aug 2
First Quarter
Aug 9
Full
Aug 16
Last Quarter

Hourly Weather History & Observations

Time (BST) Temp. Dew Point Humidity Pressure Visibility Wind Dir Wind Speed Gust Speed Precip Events Conditions
12:50 AM 67 °F 61 °F 76% 30.08 in 7 mi SSW 4.6 mph - -   Mostly Cloudy
12:50 AM 68.0 °F 60.8 °F 78% 30.06 in - SSW 4.6 mph - N/A   Clear
1:50 AM 66.2 °F 60.8 °F 83% 30.06 in - West 2.3 mph - N/A   Clear
2:50 AM 64.4 °F 60.8 °F 88% 30.04 in - WSW 1.2 mph - N/A   Clear
3:50 AM 64 °F 61 °F 85% 30.04 in 5 mi SW 4.6 mph - -   Scattered Clouds
3:50 AM 64.4 °F 60.8 °F 88% 30.04 in 5.0 mi SW 4.6 mph - N/A   Haze
4:50 AM 64.4 °F 60.8 °F 88% 30.04 in 4.3 mi WSW 3.5 mph - N/A   Haze
5:50 AM 64.4 °F 60.8 °F 88% 30.01 in 3.1 mi West 2.3 mph - N/A   Haze
6:50 AM 64 °F 62 °F 89% 30.02 in 4 mi North 3.5 mph - -   Haze
6:50 AM 64.4 °F 60.8 °F 88% 30.01 in 3.7 mi North 3.5 mph - N/A   Haze
7:50 AM 66.2 °F 60.8 °F 83% 30.01 in 5.0 mi NE 3.5 mph - N/A   Haze
8:50 AM 68.0 °F 60.8 °F 78% 30.01 in 5.0 mi NE 4.6 mph - N/A   Haze
9:50 AM 70 °F 63 °F 73% 30.01 in 5 mi NNW 2.3 mph - -   Haze
9:50 AM 69.8 °F 62.6 °F 78% 30.01 in 5.0 mi NNW 2.3 mph - N/A   Haze
10:50 AM 75.2 °F 64.4 °F 69% 30.01 in 5.0 mi South 3.5 mph - N/A   Haze
11:50 AM 77.0 °F 64.4 °F 65% 29.98 in 5.0 mi SW 3.5 mph - N/A   Haze
12:50 PM 74 °F 64 °F 64% 29.97 in 5 mi WSW 10.4 mph - - Thunderstorm Thunderstorm
12:50 PM 75.2 °F 64.4 °F 69% 29.98 in 5.0 mi WSW 10.4 mph - N/A Thunderstorm Thunderstorm
1:50 PM 66.2 °F 62.6 °F 88% 30.01 in 6.2 mi East 4.6 mph - N/A Thunderstorm Thunderstorm
2:50 PM 66.2 °F 64.4 °F 94% 30.01 in 3.1 mi SSE 10.4 mph - N/A Rain , Thunderstorm Thunderstorms and Rain
3:50 PM 69 °F 65 °F 81% 29.99 in 9 mi SSE 5.8 mph - - Rain Light Rain
3:50 PM 69.8 °F 64.4 °F 83% 29.98 in 6.2 mi SSE 5.8 mph - N/A Rain Light Rain Showers
4:50 PM 68.0 °F 60.8 °F 78% 30.01 in 5.0 mi NNW 3.5 mph - N/A   Mostly Cloudy
5:50 PM 68.0 °F 64.4 °F 88% 30.01 in - South 5.8 mph - N/A   Clear
6:50 PM 69 °F 65 °F 81% 29.99 in 7 mi SSE 4.6 mph - -   Partly Cloudy
6:50 PM 69.8 °F 64.4 °F 83% 30.01 in - SSE 4.6 mph - N/A   Clear
7:50 PM 69.8 °F 64.4 °F 83% 30.01 in - South 5.8 mph - N/A   Clear
8:50 PM 68.0 °F 64.4 °F 88% 30.01 in - SSW 5.8 mph - N/A   Clear
9:50 PM 67 °F 61 °F 74% 30.03 in 7 mi WSW 6.9 mph - -   Scattered Clouds
9:50 PM 66.2 °F 60.8 °F 83% 30.04 in - WSW 6.9 mph - N/A   Clear
10:50 PM 64.4 °F 59.0 °F 83% 30.04 in - SW 5.8 mph - N/A   Clear
11:50 PM 64.4 °F 57.2 °F 77% 30.04 in - WSW 6.9 mph - N/A   Clear